Siren, WI

12:17 PM CDT on August 19, 2017 (GMT -0500)
Burnett County

Weather History for KRZN - January, 2014

Change the Weather History Date:

Tuesday, January 28, 2014

  Actual Average Record
Temperature  
Mean Temperature -12 °F -  
Max Temperature -4 °F - - ()
Min Temperature -21 °F - - ()
Degree Days  
Heating Degree Days 78    
Moisture  
Dew Point -20 °F    
Average Humidity 66    
Maximum Humidity 75    
Minimum Humidity 54    
Precipitation  
Precipitation 0.00 in - - ()
Sea Level Pressure  
Sea Level Pressure 30.17 in    
Wind  
Wind Speed 9 mph (WSW)    
Max Wind Speed 17 mph    
Max Gust Speed 22 mph    
Visibility 10 miles    
Events      
Averages and records for this station are not official NWS values.
T = Trace of Precipitation, MM = Missing Value Source: NWS Daily Summary

Daily Weather History Graph

Daily Weather History Graph

Search for Another Location

Airport or City:

Trip Planner

Search our weather history database for the weather conditions in past years. The results will help you decide how hot, cold, wet, or windy it might be!

Date:

Astronomy

Jan. 28, 2014 Rise Set
Actual Time 7:35 AM CST 5:09 PM CST
Civil Twilight 7:03 AM CST 5:41 PM CST
Nautical Twilight 6:27 AM CST 6:17 PM CST
Astronomical Twilight 5:52 AM CST 6:52 PM CST
Moon 5:20 AM CST (1/28) 2:58 PM CST (1/28)
Length of Visible Light 10h 38m
Length of Day
9h 33m
Waning Crescent, 7% of the Moon is Illuminated
Jan 28
Waning Crescent
Jan 30
New
Feb 6
First Quarter
Feb 14
Full
Feb 22
Last Quarter

Hourly Weather History & Observations

Time (CST) Temp. Windchill Dew Point Humidity Pressure Visibility Wind Dir Wind Speed Gust Speed Precip Events Conditions
12:15 AM -16.8 °F -34.6 °F -24.9 °F 67% 30.30 in 10.0 mi West 8.1 mph - N/A   Clear
12:35 AM -17.3 °F -35.3 °F -25.1 °F 68% 30.30 in 10.0 mi WSW 8.1 mph - N/A   Clear
12:55 AM -17.5 °F -35.5 °F -24.7 °F 70% 30.30 in 10.0 mi West 8.1 mph - N/A   Clear
1:15 AM -17.7 °F -35.7 °F -24.9 °F 70% 30.29 in 10.0 mi West 8.1 mph - N/A   Clear
1:35 AM -18.2 °F -33.2 °F -25.1 °F 71% 30.29 in 10.0 mi WSW 5.8 mph - N/A   Clear
1:55 AM -18.6 °F -35.3 °F -25.6 °F 70% 30.28 in 10.0 mi West 6.9 mph - N/A   Clear
2:15 AM -18.8 °F -33.8 °F -25.2 °F 72% 30.29 in 10.0 mi WSW 5.8 mph - N/A   Clear
2:35 AM -19.5 °F -36.4 °F -25.6 °F 73% 30.29 in 10.0 mi WSW 6.9 mph - N/A   Clear
2:55 AM -19.8 °F -38.3 °F -26.1 °F 73% 30.28 in 10.0 mi WSW 8.1 mph - N/A   Clear
3:15 AM -19.3 °F -37.7 °F -25.6 °F 73% 30.27 in 10.0 mi WSW 8.1 mph - N/A   Clear
3:35 AM -19.5 °F -36.4 °F -25.6 °F 73% 30.27 in 10.0 mi WSW 6.9 mph - N/A   Clear
3:55 AM -20.2 °F -35.5 °F -26.0 °F 75% 30.26 in 10.0 mi WSW 5.8 mph - N/A   Clear
4:15 AM -20.0 °F -37.1 °F -25.8 °F 75% 30.26 in 10.0 mi West 6.9 mph - N/A   Clear
4:35 AM -18.9 °F -37.2 °F -24.9 °F 74% 30.26 in 10.0 mi West 8.1 mph - N/A   Clear
4:55 AM -18.8 °F -37.0 °F -24.7 °F 74% 30.27 in 10.0 mi West 8.1 mph - N/A   Clear
5:15 AM -19.1 °F -36.0 °F -24.9 °F 75% 30.26 in 10.0 mi WSW 6.9 mph - N/A   Clear
5:35 AM -19.5 °F -36.4 °F -25.4 °F 74% 30.26 in 10.0 mi WSW 6.9 mph - N/A   Clear
5:55 AM -20.7 °F -39.4 °F -26.7 °F 74% 30.26 in 10.0 mi WSW 8.1 mph - N/A   Clear
6:15 AM -21.1 °F -41.2 °F -27.2 °F 73% 30.26 in 10.0 mi WSW 9.2 mph - N/A   Clear
6:35 AM -21.3 °F -40.1 °F -27.4 °F 73% 30.26 in 10.0 mi WSW 8.1 mph - N/A   Clear
6:55 AM -21.6 °F -40.5 °F -27.4 °F 75% 30.26 in 10.0 mi WSW 8.1 mph - N/A   Clear
7:15 AM -21.8 °F -39.2 °F -27.4 °F 75% 30.26 in 10.0 mi WSW 6.9 mph - N/A   Clear
7:35 AM -20.6 °F -40.6 °F -26.5 °F 74% 30.25 in 10.0 mi WSW 9.2 mph - N/A   Clear
7:55 AM -20.2 °F -40.1 °F -26.5 °F 73% 30.26 in 10.0 mi WSW 9.2 mph - N/A   Clear
8:15 AM -20.2 °F -38.8 °F -26.5 °F 73% 30.25 in 10.0 mi West 8.1 mph - N/A   Clear
8:35 AM -19.3 °F -37.7 °F -25.4 °F 73% 30.25 in 10.0 mi West 8.1 mph - N/A   Clear
8:55 AM -18.4 °F -36.6 °F -24.7 °F 73% 30.25 in 10.0 mi West 8.1 mph - N/A   Clear
9:15 AM -17.1 °F -36.3 °F -24.0 °F 71% 30.25 in 10.0 mi West 9.2 mph - N/A   Clear
9:35 AM -16.1 °F -33.7 °F -23.1 °F 71% 30.24 in 10.0 mi West 8.1 mph - N/A   Clear
9:55 AM -14.6 °F -32.0 °F -22.2 °F 69% 30.24 in 10.0 mi WSW 8.1 mph - N/A   Clear
10:15 AM -14.1 °F -33.7 °F -22.0 °F 68% 30.24 in 10.0 mi WSW 10.4 mph - N/A   Clear
10:35 AM -13.2 °F -32.6 °F -21.5 °F 67% 30.24 in 10.0 mi WSW 10.4 mph - N/A   Clear
10:55 AM -12.1 °F -33.2 °F -20.7 °F 65% 30.24 in 10.0 mi WSW 12.7 mph - N/A   Clear
11:15 AM -11.2 °F -30.1 °F -20.4 °F 64% 30.23 in 10.0 mi West 10.4 mph - N/A   Clear
11:35 AM -10.3 °F -30.9 °F -20.2 °F 62% 30.21 in 10.0 mi WSW 12.7 mph - N/A   Clear
11:55 AM -9.2 °F -28.7 °F -19.7 °F 60% 30.20 in 10.0 mi West 11.5 mph 17.3 mph N/A   Clear
12:15 PM -8.5 °F -28.6 °F -19.3 °F 59% 30.19 in 10.0 mi SW 12.7 mph - N/A   Clear
12:35 PM -7.8 °F -26.8 °F -19.1 °F 58% 30.17 in 10.0 mi WSW 11.5 mph - N/A   Clear
12:55 PM -6.9 °F -24.8 °F -18.8 °F 56% 30.16 in 10.0 mi WSW 10.4 mph - N/A   Clear
1:15 PM -6.2 °F -25.7 °F -18.0 °F 56% 30.15 in 7.0 mi West 12.7 mph 19.6 mph N/A   Clear
1:35 PM -5.8 °F -26.0 °F -17.7 °F 57% 30.15 in 10.0 mi WSW 13.8 mph 20.7 mph N/A   Clear
1:55 PM -5.8 °F -28.2 °F -17.7 °F 57% 30.14 in 10.0 mi WSW 17.3 mph 20.7 mph N/A   Clear
2:15 PM -5.8 °F -26.8 °F -17.7 °F 57% 30.14 in 10.0 mi West 15.0 mph 21.9 mph N/A   Clear
2:35 PM -5.8 °F -27.5 °F -17.7 °F 57% 30.13 in 10.0 mi WSW 16.1 mph 20.7 mph N/A   Clear
2:55 PM -5.8 °F -26.0 °F -17.5 °F 57% 30.12 in 10.0 mi WSW 13.8 mph - N/A   Clear
3:15 PM -5.1 °F -22.5 °F -17.1 °F 56% 30.12 in 10.0 mi West 10.4 mph 19.6 mph N/A   Clear
3:35 PM -4.0 °F -25.8 °F -16.8 °F 54% 30.11 in 10.0 mi WSW 17.3 mph 21.9 mph N/A   Clear
3:55 PM -4.7 °F -24.7 °F -17.3 °F 55% 30.11 in 10.0 mi West 13.8 mph 19.6 mph N/A   Clear
4:15 PM -4.9 °F -24.1 °F -16.8 °F 57% 30.12 in 10.0 mi WSW 12.7 mph 21.9 mph N/A   Clear
4:35 PM -5.3 °F -21.7 °F -17.1 °F 57% 30.11 in 10.0 mi West 9.2 mph - N/A   Clear
4:55 PM -5.3 °F -21.7 °F -17.0 °F 57% 30.11 in 10.0 mi West 9.2 mph - N/A   Clear
5:15 PM -5.8 °F -22.4 °F -17.1 °F 58% 30.11 in 10.0 mi West 9.2 mph - N/A   Clear
5:35 PM -5.8 °F -23.4 °F -16.8 °F 59% 30.10 in 10.0 mi WSW 10.4 mph - N/A   Mostly Cloudy
5:55 PM -6.2 °F -21.7 °F -17.0 °F 60% 30.10 in 10.0 mi WSW 8.1 mph - N/A   Scattered Clouds
6:15 PM -6.7 °F -23.5 °F -17.3 °F 60% 30.09 in 10.0 mi WSW 9.2 mph - N/A   Clear
6:35 PM -6.2 °F -23.9 °F -16.4 °F 61% 30.09 in 10.0 mi West 10.4 mph - N/A   Scattered Clouds
6:55 PM -5.1 °F -23.5 °F -15.9 °F 60% 30.09 in 10.0 mi West 11.5 mph 17.3 mph N/A   Overcast
7:15 PM -4.9 °F -24.1 °F -15.3 °F 61% 30.08 in 10.0 mi WSW 12.7 mph - N/A   Overcast
7:35 PM -5.1 °F -22.5 °F -15.5 °F 61% 30.07 in 10.0 mi West 10.4 mph 18.4 mph N/A   Mostly Cloudy
7:55 PM -5.3 °F -22.8 °F -15.3 °F 62% 30.06 in 10.0 mi West 10.4 mph 17.3 mph N/A   Clear
8:15 PM -5.3 °F -22.8 °F -15.3 °F 62% 30.06 in 10.0 mi West 10.4 mph 16.1 mph N/A   Clear
8:35 PM -5.4 °F -24.8 °F -15.2 °F 63% 30.04 in 10.0 mi WSW 12.7 mph 18.4 mph N/A   Mostly Cloudy
8:55 PM -5.8 °F -22.4 °F -15.3 °F 63% 30.05 in 10.0 mi West 9.2 mph 16.1 mph N/A   Scattered Clouds
9:15 PM -6.0 °F -22.6 °F -15.2 °F 65% 30.04 in 10.0 mi West 9.2 mph - N/A   Clear
9:35 PM -5.4 °F -23.0 °F -14.6 °F 65% 30.03 in 10.0 mi West 10.4 mph 16.1 mph N/A   Mostly Cloudy
9:55 PM -4.7 °F -21.1 °F -13.9 °F 65% 30.03 in 10.0 mi WSW 9.2 mph - N/A   Overcast
10:15 PM -4.4 °F -20.6 °F -13.4 °F 65% 30.02 in 10.0 mi West 9.2 mph 16.1 mph N/A   Mostly Cloudy
10:35 PM -4.0 °F -23.7 °F -13.0 °F 65% 30.02 in 10.0 mi West 13.8 mph - N/A   Clear
10:55 PM -4.2 °F -23.2 °F -13.0 °F 66% 30.01 in 10.0 mi WSW 12.7 mph - N/A   Clear
11:15 PM -4.5 °F -24.4 °F -13.0 °F 67% 30.01 in 10.0 mi WSW 13.8 mph - N/A   Clear
11:35 PM -5.1 °F -23.5 °F -13.4 °F 67% 30.01 in 10.0 mi WSW 11.5 mph - N/A   Clear
11:55 PM -6.2 °F -23.9 °F -13.9 °F 69% 30.01 in 10.0 mi WSW 10.4 mph - N/A   Clear